Time,TemperatureF,DewpointF,PressureIn,WindDirection,WindDirectionDegrees,WindSpeedMPH,WindSpeedGustMPH,Humidity,HourlyPrecipIn,Conditions,Clouds,dailyrainin,SolarRadiationWatts/m^2,SoftwareType,DateUTC
2013-04-15 00:04:00,48.0,36.8,30.20,East,92,1.0,1.0,65,0.00,,,0.00,0,Wunderground v.1.15,2013-04-15 04:04:00,
2013-04-15 00:14:00,47.7,37.3,30.20,East,81,0.0,0.0,67,0.00,,,0.00,0,Wunderground v.1.15,2013-04-15 04:14:00,
2013-04-15 00:19:00,47.6,36.8,30.20,East,83,0.0,0.0,66,0.00,,,0.00,0,Wunderground v.1.15,2013-04-15 04:19:00,
2013-04-15 00:24:00,47.5,37.5,30.21,East,83,0.0,0.0,68,0.00,,,0.00,0,Wunderground v.1.15,2013-04-15 04:24:00,
2013-04-15 00:34:00,47.3,38.0,30.21,East,93,0.0,0.0,70,0.00,,,0.00,0,Wunderground v.1.15,2013-04-15 04:34:00,
2013-04-15 00:39:00,47.2,37.2,30.21,North,350,1.0,1.0,68,0.00,,,0.00,0,Wunderground v.1.15,2013-04-15 04:39:00,
2013-04-15 00:44:00,47.0,35.8,30.21,NE,40,2.0,2.0,65,0.00,,,0.00,0,Wunderground v.1.15,2013-04-15 04:44:00,
2013-04-15 00:49:00,47.0,35.4,30.21,NE,53,2.0,2.0,64,0.00,,,0.00,0,Wunderground v.1.15,2013-04-15 04:49:00,
2013-04-15 00:59:00,47.0,35.4,30.21,East,101,1.0,1.0,64,0.00,,,0.00,0,Wunderground v.1.15,2013-04-15 04:59:00,
2013-04-15 01:09:00,46.8,36.0,30.21,ESE,119,1.0,1.0,66,0.00,,,0.00,0,Wunderground v.1.15,2013-04-15 05:09:00,
2013-04-15 01:19:00,46.7,36.3,30.21,NE,38,1.0,1.0,67,0.00,,,0.00,0,Wunderground v.1.15,2013-04-15 05:19:00,
2013-04-15 01:29:00,46.5,35.7,30.21,ENE,68,1.0,1.0,66,0.00,,,0.00,0,Wunderground v.1.15,2013-04-15 05:29:00,
2013-04-15 01:34:00,46.4,35.3,30.21,SE,129,2.0,2.0,65,0.00,,,0.00,0,Wunderground v.1.15,2013-04-15 05:34:00,
2013-04-15 01:44:00,46.3,35.9,30.22,East,90,1.0,1.0,67,0.00,,,0.00,0,Wunderground v.1.15,2013-04-15 05:44:00,
2013-04-15 01:49:00,46.3,34.8,30.22,East,98,2.0,2.0,64,0.00,,,0.00,0,Wunderground v.1.15,2013-04-15 05:49:00,
2013-04-15 01:59:00,46.3,35.2,30.23,SE,125,3.0,3.0,65,0.00,,,0.00,0,Wunderground v.1.15,2013-04-15 05:59:00,
2013-04-15 02:09:00,46.3,35.9,30.23,East,96,2.0,2.0,67,0.00,,,0.00,0,Wunderground v.1.15,2013-04-15 06:09:00,
2013-04-15 02:14:00,46.2,34.7,30.24,ESE,109,2.0,2.0,64,0.00,,,0.00,0,Wunderground v.1.15,2013-04-15 06:14:00,
2013-04-15 02:19:00,46.2,33.9,30.23,ESE,102,3.0,4.0,62,0.00,,,0.00,0,Wunderground v.1.15,2013-04-15 06:19:00,
2013-04-15 02:29:00,46.5,34.2,30.24,SE,135,2.0,5.0,62,0.00,,,0.00,0,Wunderground v.1.15,2013-04-15 06:29:00,
2013-04-15 02:34:00,46.5,35.4,30.24,ESE,115,2.0,5.0,65,0.00,,,0.00,0,Wunderground v.1.15,2013-04-15 06:34:00,
2013-04-15 02:44:00,46.3,35.2,30.24,ENE,64,1.0,2.0,65,0.00,,,0.00,0,Wunderground v.1.15,2013-04-15 06:44:00,
2013-04-15 02:54:00,46.0,34.9,30.24,SE,138,1.0,1.0,65,0.00,,,0.00,0,Wunderground v.1.15,2013-04-15 06:54:00,
2013-04-15 03:04:00,45.8,35.8,30.25,ESE,115,1.0,1.0,68,0.00,,,0.00,0,Wunderground v.1.15,2013-04-15 07:04:00,
2013-04-15 03:44:00,45.1,34.0,30.26,East,101,2.0,3.0,65,0.00,,,0.00,0,Wunderground v.1.15,2013-04-15 07:44:00,
2013-04-15 03:49:00,45.2,34.5,30.27,ESE,118,2.0,2.0,66,0.00,,,0.00,0,Wunderground v.1.15,2013-04-15 07:49:00,
2013-04-15 03:54:00,45.3,35.0,30.27,East,98,1.0,2.0,67,0.00,,,0.00,0,Wunderground v.1.15,2013-04-15 07:54:00,
2013-04-15 04:04:00,45.2,36.0,30.27,East,97,1.0,6.0,70,0.00,,,0.00,0,Wunderground v.1.15,2013-04-15 08:04:00,
2013-04-15 04:09:00,45.1,35.9,30.27,East,85,1.0,1.0,70,0.00,,,0.00,0,Wunderground v.1.15,2013-04-15 08:09:00,
2013-04-15 04:19:00,44.9,35.0,30.27,East,91,1.0,1.0,68,0.00,,,0.00,0,Wunderground v.1.15,2013-04-15 08:19:00,
2013-04-15 04:24:00,44.9,34.6,30.27,East,85,2.0,2.0,67,0.00,,,0.00,0,Wunderground v.1.15,2013-04-15 08:24:00,
2013-04-15 04:34:00,45.0,35.4,30.28,ESE,111,1.0,4.0,69,0.00,,,0.00,0,Wunderground v.1.15,2013-04-15 08:34:00,
2013-04-15 04:44:00,45.0,35.1,30.28,ESE,113,2.0,5.0,68,0.00,,,0.00,0,Wunderground v.1.15,2013-04-15 08:44:00,
2013-04-15 04:54:00,45.0,34.7,30.28,SE,127,1.0,1.0,67,0.00,,,0.00,0,Wunderground v.1.15,2013-04-15 08:54:00,
2013-04-15 04:59:00,45.0,34.7,30.28,ESE,109,1.0,2.0,67,0.00,,,0.00,0,Wunderground v.1.15,2013-04-15 08:59:00,
2013-04-15 05:09:00,44.9,35.0,30.28,ESE,115,2.0,2.0,68,0.00,,,0.00,0,Wunderground v.1.15,2013-04-15 09:09:00,
2013-04-15 05:19:00,44.8,34.5,30.28,ESE,102,1.0,5.0,67,0.00,,,0.00,0,Wunderground v.1.15,2013-04-15 09:19:00,
2013-04-15 05:24:00,44.7,34.4,30.28,ESE,120,1.0,5.0,67,0.00,,,0.00,0,Wunderground v.1.15,2013-04-15 09:24:00,
2013-04-15 05:29:00,44.7,34.8,30.28,ESE,117,1.0,1.0,68,0.00,,,0.00,0,Wunderground v.1.15,2013-04-15 09:29:00,
2013-04-15 05:39:00,44.6,35.4,30.30,SE,130,1.0,2.0,70,0.00,,,0.00,0,Wunderground v.1.15,2013-04-15 09:39:00,
2013-04-15 05:49:00,44.4,33.7,30.29,East,88,2.0,4.0,66,0.00,,,0.00,0,Wunderground v.1.15,2013-04-15 09:49:00,
2013-04-15 05:59:00,44.4,34.1,30.29,ESE,112,2.0,2.0,67,0.00,,,0.00,0,Wunderground v.1.15,2013-04-15 09:59:00,
2013-04-15 06:09:00,44.3,34.0,30.29,ENE,74,1.0,1.0,67,0.00,,,0.00,0,Wunderground v.1.15,2013-04-15 10:09:00,
2013-04-15 06:14:00,44.2,34.3,30.30,ENE,77,2.0,2.0,68,0.00,,,0.00,0,Wunderground v.1.15,2013-04-15 10:14:00,
2013-04-15 06:24:00,44.1,33.5,30.31,East,96,2.0,4.0,66,0.00,,,0.00,0,Wunderground v.1.15,2013-04-15 10:24:00,
2013-04-15 06:34:00,44.1,33.5,30.31,ENE,74,2.0,3.0,66,0.00,,,0.00,0,Wunderground v.1.15,2013-04-15 10:34:00,
2013-04-15 06:39:00,44.2,33.6,30.31,East,97,2.0,2.0,66,0.00,,,0.00,5,Wunderground v.1.15,2013-04-15 10:39:00,
2013-04-15 06:49:00,44.1,34.2,30.31,ESE,117,1.0,1.0,68,0.00,,,0.00,11,Wunderground v.1.15,2013-04-15 10:49:00,
2013-04-15 06:54:00,44.1,34.2,30.32,ESE,114,0.0,1.0,68,0.00,,,0.00,12,Wunderground v.1.15,2013-04-15 10:54:00,
2013-04-15 07:04:00,44.0,34.1,30.32,East,95,1.0,1.0,68,0.00,,,0.00,16,Wunderground v.1.15,2013-04-15 11:04:00,
2013-04-15 07:14:00,44.1,34.6,30.32,ESE,122,0.0,1.0,69,0.00,,,0.00,21,Wunderground v.1.15,2013-04-15 11:14:00,
2013-04-15 07:24:00,44.2,35.0,30.33,NE,41,1.0,1.0,70,0.00,,,0.00,28,Wunderground v.1.15,2013-04-15 11:24:00,
2013-04-15 07:34:00,44.3,34.8,30.34,ESE,109,1.0,1.0,69,0.00,,,0.00,35,Wunderground v.1.15,2013-04-15 11:34:00,
2013-04-15 07:44:00,44.6,33.9,30.35,East,88,2.0,2.0,66,0.00,,,0.00,40,Wunderground v.1.15,2013-04-15 11:44:00,
2013-04-15 07:49:00,44.7,34.4,30.35,ESE,107,1.0,1.0,67,0.00,,,0.00,47,Wunderground v.1.15,2013-04-15 11:49:00,
2013-04-15 07:54:00,44.9,34.6,30.35,East,96,1.0,4.0,67,0.00,,,0.00,54,Wunderground v.1.15,2013-04-15 11:54:00,
2013-04-15 08:04:00,45.1,35.2,30.35,East,97,1.0,1.0,68,0.00,,,0.00,60,Wunderground v.1.15,2013-04-15 12:04:00,
2013-04-15 08:14:00,45.4,34.7,30.35,SE,133,2.0,8.0,66,0.00,,,0.00,74,Wunderground v.1.15,2013-04-15 12:14:00,
2013-04-15 08:24:00,45.7,34.6,30.35,ESE,112,2.0,4.0,65,0.00,,,0.00,90,Wunderground v.1.15,2013-04-15 12:24:00,
2013-04-15 08:34:00,46.0,34.1,30.36,ENE,69,3.0,4.0,63,0.00,,,0.00,102,Wunderground v.1.15,2013-04-15 12:34:00,
2013-04-15 08:44:00,46.4,33.7,30.35,ENE,61,4.0,5.0,61,0.00,,,0.00,125,Wunderground v.1.15,2013-04-15 12:44:00,
2013-04-15 08:54:00,46.6,33.4,30.35,East,97,4.0,5.0,60,0.00,,,0.00,155,Wunderground v.1.15,2013-04-15 12:54:00,
2013-04-15 09:04:00,47.1,33.1,30.34,ENE,64,3.0,3.0,58,0.00,,,0.00,171,Wunderground v.1.15,2013-04-15 13:04:00,
2013-04-15 09:14:00,47.4,33.8,30.34,ESE,109,4.0,4.0,59,0.00,,,0.00,181,Wunderground v.1.15,2013-04-15 13:14:00,
2013-04-15 09:19:00,47.7,33.2,30.34,SE,144,3.0,6.0,57,0.00,,,0.00,186,Wunderground v.1.15,2013-04-15 13:19:00,
2013-04-15 09:29:00,48.0,33.5,30.34,ESE,121,4.0,4.0,57,0.00,,,0.00,190,Wunderground v.1.15,2013-04-15 13:29:00,
2013-04-15 09:39:00,48.3,33.3,30.34,East,98,5.0,5.0,56,0.00,,,0.00,185,Wunderground v.1.15,2013-04-15 13:39:00,
2013-04-15 09:44:00,48.5,34.4,30.34,ESE,117,4.0,8.0,58,0.00,,,0.00,183,Wunderground v.1.15,2013-04-15 13:44:00,
2013-04-15 09:54:00,48.7,33.7,30.34,ESE,115,4.0,6.0,56,0.00,,,0.00,199,Wunderground v.1.15,2013-04-15 13:54:00,
2013-04-15 10:04:00,49.2,34.6,30.33,SE,126,2.0,3.0,57,0.00,,,0.00,241,Wunderground v.1.15,2013-04-15 14:04:00,
2013-04-15 10:19:00,49.9,34.8,30.33,ENE,59,4.0,4.0,56,0.00,,,0.00,211,Wunderground v.1.15,2013-04-15 14:19:00,
2013-04-15 10:29:00,49.8,33.8,30.34,NE,49,5.0,5.0,54,0.00,,,0.00,213,Wunderground v.1.15,2013-04-15 14:29:00,
2013-04-15 10:34:00,50.1,35.0,30.33,East,100,4.0,5.0,56,0.00,,,0.00,211,Wunderground v.1.15,2013-04-15 14:34:00,
2013-04-15 10:44:00,50.5,35.8,30.33,SSE,148,2.0,3.0,57,0.00,,,0.00,239,Wunderground v.1.15,2013-04-15 14:44:00,
2013-04-15 10:49:00,50.9,36.6,30.33,East,94,2.0,2.0,58,0.00,,,0.00,251,Wunderground v.1.15,2013-04-15 14:49:00,
2013-04-15 10:59:00,51.5,35.9,30.33,SE,142,3.0,3.0,55,0.00,,,0.00,274,Wunderground v.1.15,2013-04-15 14:59:00,
2013-04-15 11:09:00,51.9,37.1,30.33,East,87,4.0,4.0,57,0.00,,,0.00,267,Wunderground v.1.15,2013-04-15 15:09:00,
2013-04-15 11:14:00,52.2,36.5,30.33,SE,135,4.0,4.0,55,0.00,,,0.00,255,Wunderground v.1.15,2013-04-15 15:14:00,
2013-04-15 11:24:00,52.7,37.0,30.33,East,94,3.0,6.0,55,0.00,,,0.00,253,Wunderground v.1.15,2013-04-15 15:24:00,
2013-04-15 11:34:00,53.1,37.8,30.33,East,91,5.0,5.0,56,0.00,,,0.00,279,Wunderground v.1.15,2013-04-15 15:34:00,
2013-04-15 11:44:00,53.6,39.6,30.32,SSE,150,2.0,4.0,59,0.00,,,0.00,308,Wunderground v.1.15,2013-04-15 15:44:00,
2013-04-15 11:49:00,53.9,37.6,30.32,SE,141,3.0,8.0,54,0.00,,,0.00,262,Wunderground v.1.15,2013-04-15 15:49:00,
2013-04-15 11:54:00,53.9,38.1,30.32,SE,146,6.0,8.0,55,0.00,,,0.00,260,Wunderground v.1.15,2013-04-15 15:54:00,
2013-04-15 12:04:00,54.3,39.4,30.32,ESE,115,3.0,6.0,57,0.00,,,0.00,302,Wunderground v.1.15,2013-04-15 16:04:00,
2013-04-15 12:14:00,54.7,38.4,30.32,SE,131,4.0,5.0,54,0.00,,,0.00,330,Wunderground v.1.15,2013-04-15 16:14:00,
2013-04-15 12:24:00,55.2,40.2,30.31,SSE,156,4.0,5.0,57,0.00,,,0.00,367,Wunderground v.1.15,2013-04-15 16:24:00,
2013-04-15 12:34:00,55.8,39.9,30.32,East,94,3.0,3.0,55,0.00,,,0.00,346,Wunderground v.1.15,2013-04-15 16:34:00,
2013-04-15 12:39:00,56.0,39.1,30.31,ESE,105,3.0,6.0,53,0.00,,,0.00,918,Wunderground v.1.15,2013-04-15 16:39:00,
2013-04-15 12:44:00,56.6,40.6,30.31,ENE,74,5.0,7.0,55,0.00,,,0.00,756,Wunderground v.1.15,2013-04-15 16:44:00,
2013-04-15 12:54:00,57.3,39.3,30.31,SE,132,4.0,4.0,51,0.00,,,0.00,401,Wunderground v.1.15,2013-04-15 16:54:00,
2013-04-15 13:04:00,58.1,40.1,30.31,South,190,4.0,4.0,51,0.00,,,0.00,615,Wunderground v.1.15,2013-04-15 17:04:00,
2013-04-15 13:14:00,58.9,42.3,30.31,SE,144,2.0,8.0,54,0.00,,,0.00,366,Wunderground v.1.15,2013-04-15 17:14:00,
2013-04-15 13:19:00,59.2,41.6,30.31,ESE,114,3.0,5.0,52,0.00,,,0.00,529,Wunderground v.1.15,2013-04-15 17:19:00,
2013-04-15 13:24:00,59.1,42.0,30.31,East,90,4.0,5.0,53,0.00,,,0.00,251,Wunderground v.1.15,2013-04-15 17:24:00,
2013-04-15 13:34:00,58.7,40.6,30.30,SSE,161,2.0,3.0,51,0.00,,,0.00,221,Wunderground v.1.15,2013-04-15 17:34:00,
2013-04-15 13:39:00,58.6,40.5,30.30,East,94,3.0,3.0,51,0.00,,,0.00,250,Wunderground v.1.15,2013-04-15 17:39:00,
2013-04-15 13:49:00,58.8,41.2,30.30,SE,129,4.0,5.0,52,0.00,,,0.00,506,Wunderground v.1.15,2013-04-15 17:49:00,
2013-04-15 14:04:00,59.8,42.1,30.30,SE,138,3.0,5.0,52,0.00,,,0.00,510,Wunderground v.1.15,2013-04-15 18:04:00,
2013-04-15 14:09:00,60.1,40.9,30.30,ESE,104,3.0,3.0,49,0.00,,,0.00,297,Wunderground v.1.15,2013-04-15 18:09:00,
2013-04-15 14:19:00,59.9,41.7,30.30,SSE,165,3.0,3.0,51,0.00,,,0.00,237,Wunderground v.1.15,2013-04-15 18:19:00,
2013-04-15 14:29:00,59.5,41.9,30.30,NE,54,2.0,6.0,52,0.00,,,0.00,246,Wunderground v.1.15,2013-04-15 18:29:00,
2013-04-15 14:34:00,59.7,42.5,30.29,ESE,105,3.0,6.0,53,0.00,,,0.00,243,Wunderground v.1.15,2013-04-15 18:34:00,
2013-04-15 14:44:00,59.5,41.3,30.30,East,95,4.0,4.0,51,0.00,,,0.00,158,Wunderground v.1.15,2013-04-15 18:44:00,
2013-04-15 14:49:00,59.3,42.2,30.30,SSW,194,3.0,3.0,53,0.00,,,0.00,153,Wunderground v.1.15,2013-04-15 18:49:00,
2013-04-15 14:54:00,59.3,42.2,30.30,ESE,103,2.0,5.0,53,0.00,,,0.00,142,Wunderground v.1.15,2013-04-15 18:54:00,
2013-04-15 14:59:00,59.1,42.0,30.30,SE,137,3.0,3.0,53,0.00,,,0.00,146,Wunderground v.1.15,2013-04-15 18:59:00,
2013-04-15 15:04:00,58.8,41.7,30.29,ESE,105,4.0,4.0,53,0.00,,,0.00,149,Wunderground v.1.15,2013-04-15 19:04:00,
2013-04-15 15:09:00,58.7,41.1,30.29,SSE,159,4.0,4.0,52,0.00,,,0.00,158,Wunderground v.1.15,2013-04-15 19:09:00,
2013-04-15 15:19:00,58.9,41.8,30.30,ESE,106,2.0,2.0,53,0.00,,,0.00,160,Wunderground v.1.15,2013-04-15 19:19:00,
2013-04-15 15:24:00,58.9,42.8,30.30,SE,132,3.0,3.0,55,0.00,,,0.00,199,Wunderground v.1.15,2013-04-15 19:24:00,
2013-04-15 15:39:00,59.0,41.9,30.29,SE,125,4.0,8.0,53,0.00,,,0.00,236,Wunderground v.1.15,2013-04-15 19:39:00,
2013-04-15 15:49:00,59.3,43.6,30.29,East,82,5.0,5.0,56,0.00,,,0.00,218,Wunderground v.1.15,2013-04-15 19:49:00,
2013-04-15 15:59:00,59.3,42.6,30.29,ESE,102,6.0,8.0,54,0.00,,,0.00,195,Wunderground v.1.15,2013-04-15 19:59:00,
2013-04-15 16:04:00,59.4,43.7,30.29,ENE,67,5.0,8.0,56,0.00,,,0.00,171,Wunderground v.1.15,2013-04-15 20:04:00,
2013-04-15 16:09:00,59.4,43.7,30.29,South,186,3.0,5.0,56,0.00,,,0.00,186,Wunderground v.1.15,2013-04-15 20:09:00,
2013-04-15 16:14:00,59.2,44.0,30.29,North,355,4.0,5.0,57,0.00,,,0.00,207,Wunderground v.1.15,2013-04-15 20:14:00,
2013-04-15 16:19:00,59.3,44.5,30.29,ESE,109,2.0,4.0,58,0.00,,,0.00,223,Wunderground v.1.15,2013-04-15 20:19:00,
2013-04-15 16:24:00,59.5,43.3,30.29,South,186,2.0,4.0,55,0.00,,,0.00,216,Wunderground v.1.15,2013-04-15 20:24:00,
2013-04-15 16:29:00,59.4,44.2,30.28,WNW,297,3.0,3.0,57,0.00,,,0.00,178,Wunderground v.1.15,2013-04-15 20:29:00,
2013-04-15 16:39:00,59.1,43.4,30.29,SW,220,4.0,6.0,56,0.00,,,0.00,193,Wunderground v.1.15,2013-04-15 20:39:00,
2013-04-15 16:44:00,58.9,43.7,30.29,East,91,4.0,6.0,57,0.00,,,0.00,156,Wunderground v.1.15,2013-04-15 20:44:00,
2013-04-15 16:54:00,58.0,43.7,30.30,South,180,2.0,4.0,59,0.00,,,0.00,95,Wunderground v.1.15,2013-04-15 20:54:00,
2013-04-15 17:04:00,57.7,43.0,30.29,ESE,121,4.0,5.0,58,0.00,,,0.00,148,Wunderground v.1.15,2013-04-15 21:04:00,
2013-04-15 17:09:00,57.4,42.7,30.30,SSE,155,5.0,5.0,58,0.00,,,0.00,125,Wunderground v.1.15,2013-04-15 21:09:00,
2013-04-15 17:19:00,57.1,43.3,30.30,NNW,327,2.0,2.0,60,0.00,,,0.00,125,Wunderground v.1.15,2013-04-15 21:19:00,
2013-04-15 17:29:00,57.3,42.6,30.30,SSE,150,3.0,3.0,58,0.00,,,0.00,44,Wunderground v.1.15,2013-04-15 21:29:00,
2013-04-15 17:34:00,57.1,41.5,30.30,SE,146,4.0,6.0,56,0.00,,,0.00,47,Wunderground v.1.15,2013-04-15 21:34:00,
2013-04-15 17:44:00,56.7,42.5,30.31,WSW,240,4.0,6.0,59,0.00,,,0.00,97,Wunderground v.1.15,2013-04-15 21:44:00,
2013-04-15 17:54:00,56.6,42.0,30.31,ESE,105,4.0,6.0,58,0.00,,,0.00,114,Wunderground v.1.15,2013-04-15 21:54:00,
2013-04-15 18:04:00,56.4,41.8,30.32,SSE,147,4.0,5.0,58,0.00,,,0.00,86,Wunderground v.1.15,2013-04-15 22:04:00,
2013-04-15 18:14:00,55.8,40.8,30.31,East,82,6.0,6.0,57,0.00,,,0.00,70,Wunderground v.1.15,2013-04-15 22:14:00,
2013-04-15 18:24:00,55.2,40.7,30.32,SSE,155,4.0,8.0,58,0.00,,,0.00,67,Wunderground v.1.15,2013-04-15 22:24:00,
2013-04-15 18:29:00,55.0,40.5,30.31,ESE,117,5.0,11.0,58,0.00,,,0.00,58,Wunderground v.1.15,2013-04-15 22:29:00,
2013-04-15 18:39:00,54.8,40.3,30.32,ENE,77,4.0,5.0,58,0.00,,,0.00,54,Wunderground v.1.15,2013-04-15 22:39:00,
2013-04-15 18:49:00,54.5,40.0,30.32,East,98,6.0,6.0,58,0.00,,,0.00,25,Wunderground v.1.15,2013-04-15 22:49:00,
2013-04-15 18:54:00,54.3,40.3,30.32,SE,124,4.0,6.0,59,0.00,,,0.00,21,Wunderground v.1.15,2013-04-15 22:54:00,
2013-04-15 19:04:00,53.7,40.1,30.32,SE,140,4.0,7.0,60,0.00,,,0.00,18,Wunderground v.1.15,2013-04-15 23:04:00,
2013-04-15 19:14:00,53.2,40.1,30.32,ENE,75,4.0,5.0,61,0.00,,,0.00,14,Wunderground v.1.15,2013-04-15 23:14:00,
2013-04-15 19:19:00,52.9,39.8,30.32,ESE,104,4.0,4.0,61,0.00,,,0.00,9,Wunderground v.1.15,2013-04-15 23:19:00,
2013-04-15 19:29:00,52.6,39.9,30.33,SE,131,3.0,6.0,62,0.00,,,0.00,5,Wunderground v.1.15,2013-04-15 23:29:00,
2013-04-15 19:39:00,52.3,40.1,30.33,ESE,103,1.0,2.0,63,0.00,,,0.00,0,Wunderground v.1.15,2013-04-15 23:39:00,
2013-04-15 19:44:00,52.2,40.4,30.34,ESE,117,1.0,5.0,64,0.00,,,0.00,0,Wunderground v.1.15,2013-04-15 23:44:00,
2013-04-15 19:54:00,52.0,40.6,30.34,ESE,112,2.0,3.0,65,0.00,,,0.00,0,Wunderground v.1.15,2013-04-15 23:54:00,
2013-04-15 20:04:00,51.8,39.6,30.34,SE,142,3.0,3.0,63,0.00,,,0.00,0,Wunderground v.1.15,2013-04-16 00:04:00,
2013-04-15 20:09:00,51.7,39.9,30.34,ENE,78,2.0,2.0,64,0.00,,,0.00,0,Wunderground v.1.15,2013-04-16 00:09:00,
2013-04-15 20:19:00,51.6,39.4,30.34,ESE,113,3.0,4.0,63,0.00,,,0.00,0,Wunderground v.1.15,2013-04-16 00:19:00,
2013-04-15 20:29:00,51.5,39.3,30.35,ESE,113,3.0,6.0,63,0.00,,,0.00,0,Wunderground v.1.15,2013-04-16 00:29:00,
2013-04-15 20:39:00,51.4,39.6,30.35,ESE,120,2.0,2.0,64,0.00,,,0.00,0,Wunderground v.1.15,2013-04-16 00:39:00,
2013-04-15 20:49:00,51.3,39.9,30.35,ESE,103,2.0,3.0,65,0.00,,,0.00,0,Wunderground v.1.15,2013-04-16 00:49:00,
2013-04-15 20:54:00,51.3,39.1,30.35,ENE,70,2.0,2.0,63,0.00,,,0.00,0,Wunderground v.1.15,2013-04-16 00:54:00,
2013-04-15 21:04:00,51.2,39.0,30.35,SE,133,2.0,4.0,63,0.00,,,0.00,0,Wunderground v.1.15,2013-04-16 01:04:00,
2013-04-15 21:09:00,51.1,39.7,30.35,ESE,116,3.0,4.0,65,0.00,,,0.00,0,Wunderground v.1.15,2013-04-16 01:09:00,
2013-04-15 21:19:00,51.0,39.6,30.35,East,85,2.0,2.0,65,0.00,,,0.00,0,Wunderground v.1.15,2013-04-16 01:19:00,
2013-04-15 21:24:00,50.8,39.8,30.35,ESE,119,2.0,4.0,66,0.00,,,0.00,0,Wunderground v.1.15,2013-04-16 01:24:00,
2013-04-15 21:34:00,50.3,39.8,30.35,ESE,121,1.0,1.0,67,0.00,,,0.00,0,Wunderground v.1.15,2013-04-16 01:34:00,
2013-04-15 21:39:00,50.1,39.9,30.35,ESE,121,1.0,1.0,68,0.00,,,0.00,0,Wunderground v.1.15,2013-04-16 01:39:00,
2013-04-15 21:49:00,49.5,40.5,30.35,ESE,123,0.0,0.0,71,0.00,,,0.00,0,Wunderground v.1.15,2013-04-16 01:49:00,
2013-04-15 21:59:00,49.2,40.9,30.35,SE,130,0.0,0.0,73,0.00,,,0.00,0,Wunderground v.1.15,2013-04-16 01:59:00,
2013-04-15 22:09:00,48.9,40.6,30.35,ESE,108,0.0,2.0,73,0.00,,,0.00,0,Wunderground v.1.15,2013-04-16 02:09:00,
2013-04-15 22:14:00,49.1,41.5,30.35,ESE,105,1.0,2.0,75,0.00,,,0.00,0,Wunderground v.1.15,2013-04-16 02:14:00,
2013-04-15 22:24:00,49.2,42.0,30.36,ESE,105,0.0,1.0,76,0.00,,,0.00,0,Wunderground v.1.15,2013-04-16 02:24:00,
2013-04-15 22:29:00,49.2,41.6,30.36,ESE,105,0.0,0.0,75,0.00,,,0.00,0,Wunderground v.1.15,2013-04-16 02:29:00,
2013-04-15 22:39:00,49.3,42.1,30.36,ESE,105,0.0,0.0,76,0.00,,,0.00,0,Wunderground v.1.15,2013-04-16 02:39:00,
2013-04-15 22:44:00,49.3,42.1,30.36,ENE,74,0.0,0.0,76,0.00,,,0.00,0,Wunderground v.1.15,2013-04-16 02:44:00,
2013-04-15 22:54:00,49.2,41.6,30.36,East,84,1.0,3.0,75,0.00,,,0.00,0,Wunderground v.1.15,2013-04-16 02:54:00,
2013-04-15 23:04:00,49.4,41.8,30.36,East,94,2.0,2.0,75,0.00,,,0.00,0,Wunderground v.1.15,2013-04-16 03:04:00,
2013-04-15 23:14:00,49.5,41.9,30.37,ESE,118,1.0,1.0,75,0.00,,,0.00,0,Wunderground v.1.15,2013-04-16 03:14:00,
2013-04-15 23:24:00,49.5,41.9,30.37,ESE,114,1.0,1.0,75,0.00,,,0.00,0,Wunderground v.1.15,2013-04-16 03:24:00,
2013-04-15 23:34:00,49.5,41.9,30.37,ENE,74,2.0,4.0,75,0.00,,,0.00,0,Wunderground v.1.15,2013-04-16 03:34:00,
2013-04-15 23:44:00,49.5,42.2,30.36,ESE,117,1.0,4.0,76,0.00,,,0.00,0,Wunderground v.1.15,2013-04-16 03:44:00,
2013-04-15 23:59:00,49.3,42.1,30.36,ESE,110,2.0,2.0,76,0.00,,,0.00,0,Wunderground v.1.15,2013-04-16 03:59:00,